H1 CPF 2 isr 2024 6 6 22 158 1 irnss1f NONE
H2 1601501 3306 41384 2024 6 6 23 59 42 2024 6 13 23 44 42 900 1 1 0 0 0 1
H9
10 0 60471  64782.000000  0      35606163.061      22460890.049       2593543.897
10 0 60471  65682.000000  0      35599500.351      22461058.884       2605136.502
10 0 60471  66582.000000  0      35593016.282      22462150.552       2605518.689
10 0 60471  67482.000000  0      35586774.750      22464104.233       2594684.675
10 0 60471  68382.000000  0      35580830.877      22466851.108       2572676.957
10 0 60471  69282.000000  0      35575230.288      22470315.691       2539586.198
10 0 60471  70182.000000  0      35570008.552      22474417.252       2495550.909
10 0 60471  71082.000000  0      35565190.827      22479071.293       2440756.911
10 0 60471  71982.000000  0      35560791.691      22484191.070       2375436.605
10 0 60471  72882.000000  0      35556815.179      22489689.118       2299868.025
10 0 60471  73782.000000  0      35553255.004      22495478.756       2214373.697
10 0 60471  74682.000000  0      35550094.988      22501475.557       2119319.298
10 0 60471  75582.000000  0      35547309.657      22507598.740       2015112.121
10 0 60471  76482.000000  0      35544865.019      22513772.478       1902199.358
10 0 60471  77382.000000  0      35542719.496      22519927.084       1781066.196
10 0 60471  78282.000000  0      35540824.993      22526000.063       1652233.745
10 0 60471  79182.000000  0      35539128.090      22531937.015       1516256.806
10 0 60471  80082.000000  0      35537571.332      22537692.365       1373721.474
10 0 60471  80982.000000  0      35536094.586      22543229.917       1225242.609
10 0 60471  81882.000000  0      35534636.456      22548523.215       1071461.166
10 0 60471  82782.000000  0      35533135.712      22553555.713        913041.405
10 0 60471  83682.000000  0      35531532.723      22558320.745        750668.000
10 0 60471  84582.000000  0      35529770.853      22562821.309        585043.037
10 0 60471  85482.000000  0      35527797.804      22567069.648        416882.947
10 0 60471  86382.000000  0      35525566.877      22571086.661        246915.361
10 0 60472    882.000000  0      35523038.131      22574901.140         75875.913
10 0 60472   1782.000000  0      35520179.411      22578548.857        -95494.990
10 0 60472   2682.000000  0      35516967.232      22582071.505       -266455.425
10 0 60472   3582.000000  0      35513387.500      22585515.536       -436265.221
10 0 60472   4482.000000  0      35509436.059      22588930.895       -604189.211
10 0 60472   5382.000000  0      35505119.047      22592369.685       -769500.469
10 0 60472   6282.000000  0      35500453.056      22595884.792       -931483.507
10 0 60472   7182.000000  0      35495465.094      22599528.487      -1089437.416
10 0 60472   8082.000000  0      35490192.355      22603351.034      -1242678.946
10 0 60472   8982.000000  0      35484681.775      22607399.339      -1390545.499
10 0 60472   9882.000000  0      35478989.418      22611715.649      -1532398.028
10 0 60472  10782.000000  0      35473179.668      22616336.341      -1667623.826
10 0 60472  11682.000000  0      35467324.260      22621290.820      -1795639.200
10 0 60472  12582.000000  0      35461501.160      22626600.538      -1915892.003
10 0 60472  13482.000000  0      35455793.316      22632278.168      -2027864.025
10 0 60472  14382.000000  0      35450287.294      22638326.938      -2131073.228
10 0 60472  15282.000000  0      35445071.832      22644740.141      -2225075.819
10 0 60472  16182.000000  0      35440236.326      22651500.840      -2309468.148
10 0 60472  17082.000000  0      35435869.293      22658581.756      -2383888.419
10 0 60472  17982.000000  0      35432056.809      22665945.363      -2448018.218
10 0 60472  18882.000000  0      35428880.979      22673544.176      -2501583.851
10 0 60472  19782.000000  0      35426418.444      22681321.237      -2544357.468
10 0 60472  20682.000000  0      35424738.963      22689210.783      -2576157.998
10 0 60472  21582.000000  0      35423904.087      22697139.097      -2596851.871
10 0 60472  22482.000000  0      35423965.962      22705025.516      -2606353.529
10 0 60472  23382.000000  0      35424966.257      22712783.588      -2604625.732
10 0 60472  24282.000000  0      35426935.271      22720322.362      -2591679.652
10 0 60472  25182.000000  0      35429891.200      22727547.771      -2567574.756
10 0 60472  26082.000000  0      35433839.600      22734364.114      -2532418.484
10 0 60472  26982.000000  0      35438773.052      22740675.580      -2486365.722
10 0 60472  27882.000000  0      35444671.030      22746387.817      -2429618.069
10 0 60472  28782.000000  0      35451499.975      22751409.499      -2362422.914
10 0 60472  29682.000000  0      35459213.589      22755653.870      -2285072.314
10 0 60472  30582.000000  0      35467753.320      22759040.247      -2197901.689
10 0 60472  31482.000000  0      35477049.058      22761495.440      -2101288.336
10 0 60472  32382.000000  0      35487020.010      22762955.083      -1995649.768
10 0 60472  33282.000000  0      35497575.752      22763364.834      -1881441.892
10 0 60472  34182.000000  0      35508617.437      22762681.439      -1759157.023
10 0 60472  35082.000000  0      35520039.139      22760873.629      -1629321.761
10 0 60472  35982.000000  0      35531729.315      22757922.845      -1492494.713
10 0 60472  36882.000000  0      35543572.356      22753823.770      -1349264.103
10 0 60472  37782.000000  0      35555450.208      22748584.660      -1200245.250
10 0 60472  38682.000000  0      35567244.031      22742227.467      -1046077.945
10 0 60472  39582.000000  0      35578835.872      22734787.757       -887423.727
10 0 60472  40482.000000  0      35590110.325      22726314.412       -724963.070
10 0 60472  41382.000000  0      35600956.148      22716869.130       -559392.505
10 0 60472  42282.000000  0      35611267.819      22706525.727       -391421.668
10 0 60472  43182.000000  0      35620946.995      22695369.247       -221770.297
10 0 60472  44082.000000  0      35629903.854      22683494.902        -51165.200
10 0 60472  44982.000000  0      35638058.311      22671006.852        119662.816
10 0 60472  45882.000000  0      35645341.062      22658016.850        289982.027
10 0 60472  46782.000000  0      35651694.472      22644642.764        459062.877
10 0 60472  47682.000000  0      35657073.262      22631007.014        626181.051
10 0 60472  48582.000000  0      35661445.014      22617234.934        790620.536
10 0 60472  49482.000000  0      35664790.461      22603453.092        951676.636
10 0 60472  50382.000000  0      35667103.572      22589787.600       1108658.955
10 0 60472  51282.000000  0      35668391.437      22576362.429       1260894.312
10 0 60472  52182.000000  0      35668673.936      22563297.763       1407729.592
10 0 60472  53082.000000  0      35667983.219      22550708.419       1548534.519
10 0 60472  53982.000000  0      35666362.993      22538702.351       1682704.333
10 0 60472  54882.000000  0      35663867.637      22527379.272       1809662.365
10 0 60472  55782.000000  0      35660561.151      22516829.403       1928862.503
10 0 60472  56682.000000  0      35656515.973      22507132.378       2039791.531
10 0 60472  57582.000000  0      35651811.668      22498356.315       2141971.335
10 0 60472  58482.000000  0      35646533.520      22490557.077       2234960.968
10 0 60472  59382.000000  0      35640771.055      22483777.719       2318358.561
10 0 60472  60282.000000  0      35634616.505      22478048.137       2391803.077
10 0 60472  61182.000000  0      35628163.259      22473384.933       2454975.896
10 0 60472  62082.000000  0      35621504.314      22469791.473       2507602.220
10 0 60472  62982.000000  0      35614730.750      22467258.159       2549452.308
10 0 60472  63882.000000  0      35607930.270      22465762.898       2580342.506
10 0 60472  64782.000000  0      35601185.814      22465271.759       2600136.103
10 0 60472  65682.000000  0      35594574.271      22465739.809       2608743.972
10 0 60472  66582.000000  0      35588165.329      22467112.108       2606125.023
10 0 60472  67482.000000  0      35582020.455      22469324.859       2592286.441
10 0 60472  68382.000000  0      35576192.041      22472306.665       2567283.728
10 0 60472  69282.000000  0      35570722.730      22475979.905       2531220.525
10 0 60472  70182.000000  0      35565644.913      22480262.182       2484248.238
10 0 60472  71082.000000  0      35560980.435      22485067.818       2426565.448
10 0 60472  71982.000000  0      35556740.488      22490309.386       2358417.115
10 0 60472  72882.000000  0      35552925.705      22495899.236       2280093.585
10 0 60472  73782.000000  0      35549526.452      22501750.999       2191929.388
10 0 60472  74682.000000  0      35546523.307      22507781.033       2094301.846
10 0 60472  75582.000000  0      35543887.720      22513909.801       1987629.485
10 0 60472  76482.000000  0      35541582.843      22520063.144       1872370.263
10 0 60472  77382.000000  0      35539564.510      22526173.428       1749019.625
10 0 60472  78282.000000  0      35537782.351      22532180.560       1618108.381
10 0 60472  79182.000000  0      35536181.023      22538032.834       1480200.424
10 0 60472  80082.000000  0      35534701.525      22543687.612       1335890.304
10 0 60472  80982.000000  0      35533282.588      22549111.820       1185800.651
10 0 60472  81882.000000  0      35531862.102      22554282.251       1030579.473
10 0 60472  82782.000000  0      35530378.555      22559185.674        870897.335
10 0 60472  83682.000000  0      35528772.465      22563818.742        707444.437
10 0 60472  84582.000000  0      35526987.773      22568187.714        540927.589
10 0 60472  85482.000000  0      35524973.171      22572307.980        372067.124
99